Zurück zum Katalog

THORAD AGENA D DEB

AktivLEO
NORAD 5422·DEBRIS·🇺🇸 United States

Gestartet Apr 8, 1970 von Vandenberg Space Force Base

Loading…

Nächste Überflüge (nächste 24 Stunden)

TLE

AktuellSource: Space-Track

Epoche: Sep 13, 2026, 23:43 UTC

1 05422U 70025LA  26256.98858978  .00004430  00000-0  11588-2 0  9996
2 05422 100.0059  97.2464 0067279 113.3764 247.4519 14.48647418869842

Verfolge THORAD AGENA D DEB in Echtzeit mit AllMySat

Download on the App Store